owner,sensor,date,latitude,longitude,air_pressure(mBar),qcFlag 
TABS,ioos:station:wmo:42046:1,2016-10-01T00:00:00Z,27.8903,-94.0367,1017.23,11111222 
TABS,ioos:station:wmo:42046:1,2016-10-01T00:30:00Z,27.8903,-94.0367,1017.03,11111222 
TABS,ioos:station:wmo:42046:1,2016-10-01T01:00:00Z,27.8903,-94.0367,1016.88,11111222 
TABS,ioos:station:wmo:42046:1,2016-10-01T01:30:00Z,27.8903,-94.0367,1017.45,11111222 
TABS,ioos:station:wmo:42046:1,2016-10-01T02:00:00Z,27.8903,-94.0367,1017.23,11111222 
TABS,ioos:station:wmo:42046:1,2016-10-01T02:30:00Z,27.8903,-94.0367,1017.5,11111222 
TABS,ioos:station:wmo:42046:1,2016-10-01T03:00:00Z,27.8903,-94.0367,1017.91,11111222 
TABS,ioos:station:wmo:42046:1,2016-10-01T03:30:00Z,27.8903,-94.0367,1017.68,11111222 
TABS,ioos:station:wmo:42046:1,2016-10-01T04:00:00Z,27.8903,-94.0367,1017.9,11111222 
TABS,ioos:station:wmo:42046:1,2016-10-01T04:30:00Z,27.8903,-94.0367,1017.85,11111222 
TABS,ioos:station:wmo:42046:1,2016-10-01T05:00:00Z,27.8903,-94.0367,1017.49,11111222 
TABS,ioos:station:wmo:42046:1,2016-10-01T05:30:00Z,27.8903,-94.0367,1017.64,11111222 
TABS,ioos:station:wmo:42046:1,2016-10-01T06:00:00Z,27.8903,-94.0367,1017.53,11111222 
TABS,ioos:station:wmo:42046:1,2016-10-01T06:30:00Z,27.8903,-94.0367,1017.36,11111222 
TABS,ioos:station:wmo:42046:1,2016-10-01T07:00:00Z,27.8903,-94.0367,1017.18,11111222 
TABS,ioos:station:wmo:42046:1,2016-10-01T07:30:00Z,27.8903,-94.0367,1017.18,11111222 
TABS,ioos:station:wmo:42046:1,2016-10-01T08:00:00Z,27.8903,-94.0367,1016.72,11111222 
TABS,ioos:station:wmo:42046:1,2016-10-01T08:30:00Z,27.8903,-94.0367,1016.43,11111222 
TABS,ioos:station:wmo:42046:1,2016-10-01T09:00:00Z,27.8903,-94.0367,1016.6,11111222 
TABS,ioos:station:wmo:42046:1,2016-10-01T09:30:00Z,27.8903,-94.0367,1016.43,11111222 
TABS,ioos:station:wmo:42046:1,2016-10-01T10:00:00Z,27.8903,-94.0367,1016.34,11111222 
TABS,ioos:station:wmo:42046:1,2016-10-01T10:30:00Z,27.8903,-94.0367,1016.51,11111222 
TABS,ioos:station:wmo:42046:1,2016-10-01T11:00:00Z,27.8903,-94.0367,1016.45,11111222 
TABS,ioos:station:wmo:42046:1,2016-10-01T11:30:00Z,27.8903,-94.0367,1016.78,11111222 
TABS,ioos:station:wmo:42046:1,2016-10-01T12:00:00Z,27.8903,-94.0367,1016.86,11111222 
TABS,ioos:station:wmo:42046:1,2016-10-01T12:30:00Z,27.8903,-94.0367,1017.08,11111222 
TABS,ioos:station:wmo:42046:1,2016-10-01T13:00:00Z,27.8903,-94.0367,1017.18,11111222 
TABS,ioos:station:wmo:42046:1,2016-10-01T13:30:00Z,27.8903,-94.0367,1017.18,11111222 
TABS,ioos:station:wmo:42046:1,2016-10-01T14:00:00Z,27.8903,-94.0367,1017.53,11111222 
TABS,ioos:station:wmo:42046:1,2016-10-01T14:30:00Z,27.8903,-94.0367,1017.55,11111222 
TABS,ioos:station:wmo:42046:1,2016-10-01T15:00:00Z,27.8903,-94.0367,1017.46,11111222 
TABS,ioos:station:wmo:42046:1,2016-10-01T15:30:00Z,27.8903,-94.0367,1017.41,11111222 
TABS,ioos:station:wmo:42046:1,2016-10-01T16:00:00Z,27.8903,-94.0367,1017.26,11111222 
TABS,ioos:station:wmo:42046:1,2016-10-01T16:30:00Z,27.8903,-94.0367,1017.38,11111222 
TABS,ioos:station:wmo:42046:1,2016-10-01T17:00:00Z,27.8903,-94.0367,1017.06,11111222 
TABS,ioos:station:wmo:42046:1,2016-10-01T17:30:00Z,27.8903,-94.0367,1016.86,11111222 
TABS,ioos:station:wmo:42046:1,2016-10-01T18:00:00Z,27.8903,-94.0367,1016.43,11111222 
TABS,ioos:station:wmo:42046:1,2016-10-01T18:30:00Z,27.8903,-94.0367,1016.25,11111222 
TABS,ioos:station:wmo:42046:1,2016-10-01T19:00:00Z,27.8903,-94.0367,1015.77,11111222 
TABS,ioos:station:wmo:42046:1,2016-10-01T19:30:00Z,27.8903,-94.0367,1015.4,11111222 
TABS,ioos:station:wmo:42046:1,2016-10-01T20:00:00Z,27.8903,-94.0367,1015.32,11111222 
TABS,ioos:station:wmo:42046:1,2016-10-01T20:30:00Z,27.8903,-94.0367,1015.04,11111222 
TABS,ioos:station:wmo:42046:1,2016-10-01T21:00:00Z,27.8903,-94.0367,1015.0,11111222 
TABS,ioos:station:wmo:42046:1,2016-10-01T21:30:00Z,27.8903,-94.0367,1014.87,11111222 
TABS,ioos:station:wmo:42046:1,2016-10-01T22:00:00Z,27.8903,-94.0367,1014.98,11111222 
TABS,ioos:station:wmo:42046:1,2016-10-01T22:30:00Z,27.8903,-94.0367,1015.07,11111222 
TABS,ioos:station:wmo:42046:1,2016-10-01T23:00:00Z,27.8903,-94.0367,1014.63,11111222 
TABS,ioos:station:wmo:42046:1,2016-10-01T23:30:00Z,27.8903,-94.0367,1014.39,11111222 
TABS,ioos:station:wmo:42046:1,2016-10-02T00:00:00Z,27.8903,-94.0367,1014.42,11111222 
TABS,ioos:station:wmo:42046:1,2016-10-02T00:30:00Z,27.8903,-94.0367,1014.55,11111222 
TABS,ioos:station:wmo:42046:1,2016-10-02T01:00:00Z,27.8903,-94.0367,1014.94,11111222 
TABS,ioos:station:wmo:42046:1,2016-10-02T01:30:00Z,27.8903,-94.0367,1014.78,11111222 
TABS,ioos:station:wmo:42046:1,2016-10-02T02:00:00Z,27.8903,-94.0367,1015.09,11111222 
TABS,ioos:station:wmo:42046:1,2016-10-02T02:30:00Z,27.8903,-94.0367,1015.19,11111222 
TABS,ioos:station:wmo:42046:1,2016-10-02T03:00:00Z,27.8903,-94.0367,1015.03,11111222 
TABS,ioos:station:wmo:42046:1,2016-10-02T03:30:00Z,27.8903,-94.0367,1015.03,11111222 
TABS,ioos:station:wmo:42046:1,2016-10-02T04:00:00Z,27.8903,-94.0367,1015.32,11111222 
TABS,ioos:station:wmo:42046:1,2016-10-02T04:30:00Z,27.8903,-94.0367,1015.38,11111222 
TABS,ioos:station:wmo:42046:1,2016-10-02T05:00:00Z,27.8903,-94.0367,1015.76,11111222 
TABS,ioos:station:wmo:42046:1,2016-10-02T05:30:00Z,27.8903,-94.0367,1015.3,11111222 
TABS,ioos:station:wmo:42046:1,2016-10-02T06:00:00Z,27.8903,-94.0367,1015.46,11111222 
TABS,ioos:station:wmo:42046:1,2016-10-02T06:30:00Z,27.8903,-94.0367,1015.21,11111222 
TABS,ioos:station:wmo:42046:1,2016-10-02T07:00:00Z,27.8903,-94.0367,1014.92,11111222 
TABS,ioos:station:wmo:42046:1,2016-10-02T07:30:00Z,27.8903,-94.0367,1015.2,11111222 
TABS,ioos:station:wmo:42046:1,2016-10-02T08:00:00Z,27.8903,-94.0367,1015.21,11111222 
TABS,ioos:station:wmo:42046:1,2016-10-02T08:30:00Z,27.8903,-94.0367,1014.64,11111222 
TABS,ioos:station:wmo:42046:1,2016-10-02T09:00:00Z,27.8903,-94.0367,1014.61,11111222 
TABS,ioos:station:wmo:42046:1,2016-10-02T09:30:00Z,27.8903,-94.0367,1014.21,11111222 
TABS,ioos:station:wmo:42046:1,2016-10-02T10:00:00Z,27.8903,-94.0367,1014.31,11111222 
TABS,ioos:station:wmo:42046:1,2016-10-02T10:30:00Z,27.8903,-94.0367,1014.3,11111222 
TABS,ioos:station:wmo:42046:1,2016-10-02T11:00:00Z,27.8903,-94.0367,1014.04,11111222 
TABS,ioos:station:wmo:42046:1,2016-10-02T11:30:00Z,27.8903,-94.0367,1014.48,11111222 
TABS,ioos:station:wmo:42046:1,2016-10-02T12:00:00Z,27.8903,-94.0367,1014.45,11111222 
TABS,ioos:station:wmo:42046:1,2016-10-02T12:30:00Z,27.8903,-94.0367,1014.75,11111222 
TABS,ioos:station:wmo:42046:1,2016-10-02T13:00:00Z,27.8903,-94.0367,1014.99,11111222 
TABS,ioos:station:wmo:42046:1,2016-10-02T13:30:00Z,27.8903,-94.0367,1015.19,11111222 
TABS,ioos:station:wmo:42046:1,2016-10-02T14:00:00Z,27.8903,-94.0367,1015.29,11111222 
TABS,ioos:station:wmo:42046:1,2016-10-02T14:30:00Z,27.8903,-94.0367,1015.56,11111222 
TABS,ioos:station:wmo:42046:1,2016-10-02T15:00:00Z,27.8903,-94.0367,1015.76,11111222 
TABS,ioos:station:wmo:42046:1,2016-10-02T15:30:00Z,27.8903,-94.0367,1015.62,11111222 
TABS,ioos:station:wmo:42046:1,2016-10-02T16:00:00Z,27.8903,-94.0367,1015.69,11111222 
TABS,ioos:station:wmo:42046:1,2016-10-02T16:30:00Z,27.8903,-94.0367,1015.57,11111222 
TABS,ioos:station:wmo:42046:1,2016-10-02T17:00:00Z,27.8903,-94.0367,1015.36,11111222 
TABS,ioos:station:wmo:42046:1,2016-10-02T17:30:00Z,27.8903,-94.0367,1015.24,11111222 
TABS,ioos:station:wmo:42046:1,2016-10-02T18:00:00Z,27.8903,-94.0367,1015.16,11111222 
TABS,ioos:station:wmo:42046:1,2016-10-02T18:30:00Z,27.8903,-94.0367,1014.64,11111222 
TABS,ioos:station:wmo:42046:1,2016-10-02T19:00:00Z,27.8903,-94.0367,1014.28,11111222 
TABS,ioos:station:wmo:42046:1,2016-10-02T19:30:00Z,27.8903,-94.0367,1013.91,11111222 
TABS,ioos:station:wmo:42046:1,2016-10-02T20:00:00Z,27.8903,-94.0367,1013.96,11111222 
TABS,ioos:station:wmo:42046:1,2016-10-02T20:30:00Z,27.8903,-94.0367,1013.6,11111222 
TABS,ioos:station:wmo:42046:1,2016-10-02T21:00:00Z,27.8903,-94.0367,1014.02,11111222 
TABS,ioos:station:wmo:42046:1,2016-10-02T21:30:00Z,27.8903,-94.0367,1013.42,11111222 
TABS,ioos:station:wmo:42046:1,2016-10-02T22:00:00Z,27.8903,-94.0367,1013.46,11111222 
TABS,ioos:station:wmo:42046:1,2016-10-02T22:30:00Z,27.8903,-94.0367,1013.22,11111222 
TABS,ioos:station:wmo:42046:1,2016-10-02T23:00:00Z,27.8903,-94.0367,1013.39,11111222 
TABS,ioos:station:wmo:42046:1,2016-10-02T23:30:00Z,27.8903,-94.0367,1013.44,11111222 
TABS,ioos:station:wmo:42046:1,2016-10-03T00:00:00Z,27.8903,-94.0367,1013.46,11111222 
TABS,ioos:station:wmo:42046:1,2016-10-03T00:30:00Z,27.8903,-94.0367,1013.49,11111222 
TABS,ioos:station:wmo:42046:1,2016-10-03T01:00:00Z,27.8903,-94.0367,1013.87,11111222 
TABS,ioos:station:wmo:42046:1,2016-10-03T01:30:00Z,27.8903,-94.0367,1014.3,11111222 
TABS,ioos:station:wmo:42046:1,2016-10-03T02:00:00Z,27.8903,-94.0367,1014.25,11111222 
TABS,ioos:station:wmo:42046:1,2016-10-03T02:30:00Z,27.8903,-94.0367,1014.21,11111222 
TABS,ioos:station:wmo:42046:1,2016-10-03T03:00:00Z,27.8903,-94.0367,1014.2,11111222 
TABS,ioos:station:wmo:42046:1,2016-10-03T03:30:00Z,27.8903,-94.0367,1014.29,11111222 
TABS,ioos:station:wmo:42046:1,2016-10-03T04:00:00Z,27.8903,-94.0367,1013.84,11111222 
TABS,ioos:station:wmo:42046:1,2016-10-03T04:30:00Z,27.8903,-94.0367,1013.97,11111222 
TABS,ioos:station:wmo:42046:1,2016-10-03T05:00:00Z,27.8903,-94.0367,1013.73,11111222 
TABS,ioos:station:wmo:42046:1,2016-10-03T05:30:00Z,27.8903,-94.0367,1013.43,11111222 
TABS,ioos:station:wmo:42046:1,2016-10-03T06:00:00Z,27.8903,-94.0367,1013.36,11111222 
TABS,ioos:station:wmo:42046:1,2016-10-03T06:30:00Z,27.8903,-94.0367,1013.46,11111222 
TABS,ioos:station:wmo:42046:1,2016-10-03T07:00:00Z,27.8903,-94.0367,1013.01,11111222 
TABS,ioos:station:wmo:42046:1,2016-10-03T07:30:00Z,27.8903,-94.0367,1012.67,11111222 
TABS,ioos:station:wmo:42046:1,2016-10-03T08:00:00Z,27.8903,-94.0367,1012.89,11111222 
TABS,ioos:station:wmo:42046:1,2016-10-03T08:30:00Z,27.8903,-94.0367,1012.51,11111222 
TABS,ioos:station:wmo:42046:1,2016-10-03T09:00:00Z,27.8903,-94.0367,1012.21,11111222 
TABS,ioos:station:wmo:42046:1,2016-10-03T09:30:00Z,27.8903,-94.0367,1011.85,11111222 
TABS,ioos:station:wmo:42046:1,2016-10-03T10:00:00Z,27.8903,-94.0367,1012.27,11111222 
TABS,ioos:station:wmo:42046:1,2016-10-03T10:30:00Z,27.8903,-94.0367,1012.02,11111222 
TABS,ioos:station:wmo:42046:1,2016-10-03T11:00:00Z,27.8903,-94.0367,1012.23,11111222 
TABS,ioos:station:wmo:42046:1,2016-10-03T11:30:00Z,27.8903,-94.0367,1012.26,11111222 
TABS,ioos:station:wmo:42046:1,2016-10-03T12:00:00Z,27.8903,-94.0367,1012.47,11111222 
TABS,ioos:station:wmo:42046:1,2016-10-03T12:30:00Z,27.8903,-94.0367,1012.51,11111222 
TABS,ioos:station:wmo:42046:1,2016-10-03T13:00:00Z,27.8903,-94.0367,1012.26,11111222 
TABS,ioos:station:wmo:42046:1,2016-10-03T13:30:00Z,27.8903,-94.0367,1012.58,11111222 
TABS,ioos:station:wmo:42046:1,2016-10-03T14:00:00Z,27.8903,-94.0367,1012.95,11111222 
TABS,ioos:station:wmo:42046:1,2016-10-03T14:30:00Z,27.8903,-94.0367,1013.05,11111222 
TABS,ioos:station:wmo:42046:1,2016-10-03T15:00:00Z,27.8903,-94.0367,1013.1,11111222 
TABS,ioos:station:wmo:42046:1,2016-10-03T15:30:00Z,27.8903,-94.0367,1013.02,11111222 
TABS,ioos:station:wmo:42046:1,2016-10-03T16:00:00Z,27.8903,-94.0367,1013.28,11111222 
TABS,ioos:station:wmo:42046:1,2016-10-03T16:30:00Z,27.8903,-94.0367,1013.16,11111222 
TABS,ioos:station:wmo:42046:1,2016-10-03T17:00:00Z,27.8903,-94.0367,1013.16,11111222 
TABS,ioos:station:wmo:42046:1,2016-10-03T17:30:00Z,27.8903,-94.0367,1012.99,11111222 
TABS,ioos:station:wmo:42046:1,2016-10-03T18:00:00Z,27.8903,-94.0367,1012.67,11111222 
TABS,ioos:station:wmo:42046:1,2016-10-03T18:30:00Z,27.8903,-94.0367,1012.33,11111222 
TABS,ioos:station:wmo:42046:1,2016-10-03T19:00:00Z,27.8903,-94.0367,1011.63,11111222 
TABS,ioos:station:wmo:42046:1,2016-10-03T19:30:00Z,27.8903,-94.0367,1011.36,11111222 
TABS,ioos:station:wmo:42046:1,2016-10-03T20:00:00Z,27.8903,-94.0367,1010.81,11111222 
TABS,ioos:station:wmo:42046:1,2016-10-03T20:30:00Z,27.8903,-94.0367,1010.82,11111222 
TABS,ioos:station:wmo:42046:1,2016-10-03T21:00:00Z,27.8903,-94.0367,1010.4,11111222 
TABS,ioos:station:wmo:42046:1,2016-10-03T21:30:00Z,27.8903,-94.0367,1010.39,11111222 
TABS,ioos:station:wmo:42046:1,2016-10-03T22:00:00Z,27.8903,-94.0367,1010.11,11111222 
TABS,ioos:station:wmo:42046:1,2016-10-03T22:30:00Z,27.8903,-94.0367,1010.37,11111222 
TABS,ioos:station:wmo:42046:1,2016-10-03T23:00:00Z,27.8903,-94.0367,1010.41,11111222 
TABS,ioos:station:wmo:42046:1,2016-10-03T23:30:00Z,27.8903,-94.0367,1010.38,11111222 
TABS,ioos:station:wmo:42046:1,2016-10-04T00:00:00Z,27.8903,-94.0367,1010.27,11111222 
TABS,ioos:station:wmo:42046:1,2016-10-04T00:30:00Z,27.8903,-94.0367,1010.3,11111222 
TABS,ioos:station:wmo:42046:1,2016-10-04T01:00:00Z,27.8903,-94.0367,1010.65,11111222 
TABS,ioos:station:wmo:42046:1,2016-10-04T01:30:00Z,27.8903,-94.0367,1010.52,11111222 
TABS,ioos:station:wmo:42046:1,2016-10-04T02:00:00Z,27.8903,-94.0367,1010.49,11111222 
TABS,ioos:station:wmo:42046:1,2016-10-04T02:30:00Z,27.8903,-94.0367,1010.95,11111222 
TABS,ioos:station:wmo:42046:1,2016-10-04T03:00:00Z,27.8903,-94.0367,1010.85,11111222 
TABS,ioos:station:wmo:42046:1,2016-10-04T03:30:00Z,27.8903,-94.0367,1010.98,11111222 
TABS,ioos:station:wmo:42046:1,2016-10-04T04:00:00Z,27.8903,-94.0367,1010.66,11111222 
TABS,ioos:station:wmo:42046:1,2016-10-04T04:30:00Z,27.8903,-94.0367,1010.45,11111222 
TABS,ioos:station:wmo:42046:1,2016-10-04T05:00:00Z,27.8903,-94.0367,1010.17,11111222 
TABS,ioos:station:wmo:42046:1,2016-10-04T05:30:00Z,27.8903,-94.0367,1009.81,11111222 
TABS,ioos:station:wmo:42046:1,2016-10-04T06:00:00Z,27.8903,-94.0367,1009.89,11111222 
TABS,ioos:station:wmo:42046:1,2016-10-04T06:30:00Z,27.8903,-94.0367,1010.21,11111222 
TABS,ioos:station:wmo:42046:1,2016-10-04T07:00:00Z,27.8903,-94.0367,1010.01,11111222 
TABS,ioos:station:wmo:42046:1,2016-10-04T07:30:00Z,27.8903,-94.0367,1009.68,11111222 
TABS,ioos:station:wmo:42046:1,2016-10-04T08:00:00Z,27.8903,-94.0367,1009.45,11111222 
TABS,ioos:station:wmo:42046:1,2016-10-04T08:30:00Z,27.8903,-94.0367,1009.58,11111222 
TABS,ioos:station:wmo:42046:1,2016-10-04T09:00:00Z,27.8903,-94.0367,1009.03,11111222 
TABS,ioos:station:wmo:42046:1,2016-10-04T09:30:00Z,27.8903,-94.0367,1009.05,11111222 
TABS,ioos:station:wmo:42046:1,2016-10-04T10:00:00Z,27.8903,-94.0367,1008.89,11111222 
TABS,ioos:station:wmo:42046:1,2016-10-04T10:30:00Z,27.8903,-94.0367,1009.12,11111222 
TABS,ioos:station:wmo:42046:1,2016-10-04T11:00:00Z,27.8903,-94.0367,1009.11,11111222 
TABS,ioos:station:wmo:42046:1,2016-10-04T11:30:00Z,27.8903,-94.0367,1009.31,11111222 
TABS,ioos:station:wmo:42046:1,2016-10-04T12:00:00Z,27.8903,-94.0367,1009.24,11111222 
TABS,ioos:station:wmo:42046:1,2016-10-04T12:30:00Z,27.8903,-94.0367,1009.44,11111222 
TABS,ioos:station:wmo:42046:1,2016-10-04T13:00:00Z,27.8903,-94.0367,1009.76,11111222 
TABS,ioos:station:wmo:42046:1,2016-10-04T13:30:00Z,27.8903,-94.0367,1009.85,11111222 
TABS,ioos:station:wmo:42046:1,2016-10-04T14:00:00Z,27.8903,-94.0367,1009.98,11111222 
TABS,ioos:station:wmo:42046:1,2016-10-04T14:30:00Z,27.8903,-94.0367,1010.19,11111222 
TABS,ioos:station:wmo:42046:1,2016-10-04T15:00:00Z,27.8903,-94.0367,1010.27,11111222 
TABS,ioos:station:wmo:42046:1,2016-10-04T15:30:00Z,27.8903,-94.0367,1010.48,11111222 
TABS,ioos:station:wmo:42046:1,2016-10-04T16:00:00Z,27.8903,-94.0367,1010.5,11111222 
TABS,ioos:station:wmo:42046:1,2016-10-04T16:30:00Z,27.8903,-94.0367,1010.28,11111222 
TABS,ioos:station:wmo:42046:1,2016-10-04T17:00:00Z,27.8903,-94.0367,1010.06,11111222 
TABS,ioos:station:wmo:42046:1,2016-10-04T17:30:00Z,27.8903,-94.0367,1009.81,11111222 
TABS,ioos:station:wmo:42046:1,2016-10-04T18:00:00Z,27.8903,-94.0367,1009.5,11111222 
TABS,ioos:station:wmo:42046:1,2016-10-04T18:30:00Z,27.8903,-94.0367,1009.27,11111222 
TABS,ioos:station:wmo:42046:1,2016-10-04T19:00:00Z,27.8903,-94.0367,1009.14,11111222 
TABS,ioos:station:wmo:42046:1,2016-10-04T19:30:00Z,27.8903,-94.0367,1009.03,11111222 
TABS,ioos:station:wmo:42046:1,2016-10-04T20:00:00Z,27.8903,-94.0367,1008.76,11111222 
TABS,ioos:station:wmo:42046:1,2016-10-04T20:30:00Z,27.8903,-94.0367,1008.64,11111222 
TABS,ioos:station:wmo:42046:1,2016-10-04T21:00:00Z,27.8903,-94.0367,1008.58,11111222 
TABS,ioos:station:wmo:42046:1,2016-10-04T21:30:00Z,27.8903,-94.0367,1008.68,11111222 
TABS,ioos:station:wmo:42046:1,2016-10-04T22:00:00Z,27.8903,-94.0367,1008.67,11111222 
TABS,ioos:station:wmo:42046:1,2016-10-04T22:30:00Z,27.8903,-94.0367,1008.82,11111222 
TABS,ioos:station:wmo:42046:1,2016-10-04T23:00:00Z,27.8903,-94.0367,1008.77,11111222 
TABS,ioos:station:wmo:42046:1,2016-10-04T23:30:00Z,27.8903,-94.0367,1009.19,11111222 
TABS,ioos:station:wmo:42046:1,2016-10-05T00:00:00Z,27.8903,-94.0367,1009.27,11111222 
TABS,ioos:station:wmo:42046:1,2016-10-05T00:30:00Z,27.8903,-94.0367,1009.33,11111222 
TABS,ioos:station:wmo:42046:1,2016-10-05T01:00:00Z,27.8903,-94.0367,1009.55,11111222 
TABS,ioos:station:wmo:42046:1,2016-10-05T01:30:00Z,27.8903,-94.0367,1009.88,11111222 
TABS,ioos:station:wmo:42046:1,2016-10-05T02:00:00Z,27.8903,-94.0367,1010.47,11111222 
TABS,ioos:station:wmo:42046:1,2016-10-05T02:30:00Z,27.8903,-94.0367,1010.7,11111222 
TABS,ioos:station:wmo:42046:1,2016-10-05T03:00:00Z,27.8903,-94.0367,1011.04,11111222 
TABS,ioos:station:wmo:42046:1,2016-10-05T03:30:00Z,27.8903,-94.0367,1010.96,11111222 
TABS,ioos:station:wmo:42046:1,2016-10-05T04:00:00Z,27.8903,-94.0367,1010.76,11111222 
TABS,ioos:station:wmo:42046:1,2016-10-05T04:30:00Z,27.8903,-94.0367,1010.75,11111222 
TABS,ioos:station:wmo:42046:1,2016-10-05T05:00:00Z,27.8903,-94.0367,1010.74,11111222 
TABS,ioos:station:wmo:42046:1,2016-10-05T05:30:00Z,27.8903,-94.0367,1010.52,11111222 
TABS,ioos:station:wmo:42046:1,2016-10-05T06:00:00Z,27.8903,-94.0367,1010.93,11111222 
TABS,ioos:station:wmo:42046:1,2016-10-05T06:30:00Z,27.8903,-94.0367,1011.07,11111222 
TABS,ioos:station:wmo:42046:1,2016-10-05T07:00:00Z,27.8903,-94.0367,1011.09,11111222 
TABS,ioos:station:wmo:42046:1,2016-10-05T07:30:00Z,27.8903,-94.0367,1010.66,11111222 
TABS,ioos:station:wmo:42046:1,2016-10-05T08:00:00Z,27.8903,-94.0367,1010.36,11111222 
TABS,ioos:station:wmo:42046:1,2016-10-05T08:30:00Z,27.8903,-94.0367,1010.31,11111222 
TABS,ioos:station:wmo:42046:1,2016-10-05T09:00:00Z,27.8903,-94.0367,1010.2,11111222 
TABS,ioos:station:wmo:42046:1,2016-10-05T09:30:00Z,27.8903,-94.0367,1010.33,11111222 
TABS,ioos:station:wmo:42046:1,2016-10-05T10:00:00Z,27.8903,-94.0367,1010.68,11111222 
TABS,ioos:station:wmo:42046:1,2016-10-05T10:30:00Z,27.8903,-94.0367,1011.06,11111222 
TABS,ioos:station:wmo:42046:1,2016-10-05T11:00:00Z,27.8903,-94.0367,1011.33,11111222 
TABS,ioos:station:wmo:42046:1,2016-10-05T11:30:00Z,27.8903,-94.0367,1011.45,11111222 
TABS,ioos:station:wmo:42046:1,2016-10-05T12:00:00Z,27.8903,-94.0367,1011.33,11111222 
TABS,ioos:station:wmo:42046:1,2016-10-05T12:30:00Z,27.8903,-94.0367,1011.53,11111222 
TABS,ioos:station:wmo:42046:1,2016-10-05T13:00:00Z,27.8903,-94.0367,1011.72,11111222 
TABS,ioos:station:wmo:42046:1,2016-10-05T13:30:00Z,27.8903,-94.0367,1011.86,11111222 
TABS,ioos:station:wmo:42046:1,2016-10-05T14:00:00Z,27.8903,-94.0367,1012.35,11111222 
TABS,ioos:station:wmo:42046:1,2016-10-05T14:30:00Z,27.8903,-94.0367,1012.78,11111222 
TABS,ioos:station:wmo:42046:1,2016-10-05T15:00:00Z,27.8903,-94.0367,1012.98,11111222 
TABS,ioos:station:wmo:42046:1,2016-10-05T15:30:00Z,27.8903,-94.0367,1013.14,11111222 
TABS,ioos:station:wmo:42046:1,2016-10-05T16:00:00Z,27.8903,-94.0367,1013.02,11111222 
TABS,ioos:station:wmo:42046:1,2016-10-05T16:30:00Z,27.8903,-94.0367,1012.92,11111222 
TABS,ioos:station:wmo:42046:1,2016-10-05T17:00:00Z,27.8903,-94.0367,1012.99,11111222 
TABS,ioos:station:wmo:42046:1,2016-10-05T17:30:00Z,27.8903,-94.0367,1012.55,11111222 
TABS,ioos:station:wmo:42046:1,2016-10-05T18:00:00Z,27.8903,-94.0367,1012.51,11111222 
TABS,ioos:station:wmo:42046:1,2016-10-05T18:30:00Z,27.8903,-94.0367,1012.37,11111222 
TABS,ioos:station:wmo:42046:1,2016-10-05T19:00:00Z,27.8903,-94.0367,1011.64,11111222 
TABS,ioos:station:wmo:42046:1,2016-10-05T19:30:00Z,27.8903,-94.0367,1011.55,11111222 
TABS,ioos:station:wmo:42046:1,2016-10-05T20:00:00Z,27.8903,-94.0367,1011.54,11111222 
TABS,ioos:station:wmo:42046:1,2016-10-05T20:30:00Z,27.8903,-94.0367,1011.33,11111222 
TABS,ioos:station:wmo:42046:1,2016-10-05T21:00:00Z,27.8903,-94.0367,1011.53,11111222 
TABS,ioos:station:wmo:42046:1,2016-10-05T21:30:00Z,27.8903,-94.0367,1011.79,11111222 
TABS,ioos:station:wmo:42046:1,2016-10-05T22:00:00Z,27.8903,-94.0367,1011.59,11111222 
TABS,ioos:station:wmo:42046:1,2016-10-05T22:30:00Z,27.8903,-94.0367,1011.45,11111222 
TABS,ioos:station:wmo:42046:1,2016-10-05T23:00:00Z,27.8903,-94.0367,1011.75,11111222 
TABS,ioos:station:wmo:42046:1,2016-10-05T23:30:00Z,27.8903,-94.0367,1011.83,11111222 
TABS,ioos:station:wmo:42046:1,2016-10-06T00:00:00Z,27.8903,-94.0367,1011.83,11111222 
TABS,ioos:station:wmo:42046:1,2016-10-06T00:30:00Z,27.8903,-94.0367,1012.01,11111222 
TABS,ioos:station:wmo:42046:1,2016-10-06T01:00:00Z,27.8903,-94.0367,1012.09,11111222 
TABS,ioos:station:wmo:42046:1,2016-10-06T01:30:00Z,27.8903,-94.0367,1012.25,11111222 
TABS,ioos:station:wmo:42046:1,2016-10-06T02:00:00Z,27.8903,-94.0367,1012.83,11111222 
TABS,ioos:station:wmo:42046:1,2016-10-06T02:30:00Z,27.8903,-94.0367,1012.95,11111222 
TABS,ioos:station:wmo:42046:1,2016-10-06T03:00:00Z,27.8903,-94.0367,1012.9,11111222 
TABS,ioos:station:wmo:42046:1,2016-10-06T03:30:00Z,27.8903,-94.0367,1012.98,11111222 
TABS,ioos:station:wmo:42046:1,2016-10-06T04:00:00Z,27.8903,-94.0367,1013.11,11111222 
TABS,ioos:station:wmo:42046:1,2016-10-06T04:30:00Z,27.8903,-94.0367,1013.1,11111222 
TABS,ioos:station:wmo:42046:1,2016-10-06T05:00:00Z,27.8903,-94.0367,1013.02,11111222 
TABS,ioos:station:wmo:42046:1,2016-10-06T05:30:00Z,27.8903,-94.0367,1012.73,11111222 
TABS,ioos:station:wmo:42046:1,2016-10-06T06:00:00Z,27.8903,-94.0367,1012.88,11111222 
TABS,ioos:station:wmo:42046:1,2016-10-06T06:30:00Z,27.8903,-94.0367,1012.67,11111222 
TABS,ioos:station:wmo:42046:1,2016-10-06T07:00:00Z,27.8903,-94.0367,1012.4,11111222 
TABS,ioos:station:wmo:42046:1,2016-10-06T07:30:00Z,27.8903,-94.0367,1012.4,11111222 
TABS,ioos:station:wmo:42046:1,2016-10-06T08:00:00Z,27.8903,-94.0367,1012.21,11111222 
TABS,ioos:station:wmo:42046:1,2016-10-06T08:30:00Z,27.8903,-94.0367,1012.5,11111222 
TABS,ioos:station:wmo:42046:1,2016-10-06T09:00:00Z,27.8903,-94.0367,1012.21,11111222 
TABS,ioos:station:wmo:42046:1,2016-10-06T09:30:00Z,27.8903,-94.0367,1012.34,11111222 
TABS,ioos:station:wmo:42046:1,2016-10-06T10:00:00Z,27.8903,-94.0367,1011.99,11111222 
TABS,ioos:station:wmo:42046:1,2016-10-06T10:30:00Z,27.8903,-94.0367,1012.44,11111222 
TABS,ioos:station:wmo:42046:1,2016-10-06T11:00:00Z,27.8903,-94.0367,1012.6,11111222 
TABS,ioos:station:wmo:42046:1,2016-10-06T11:30:00Z,27.8903,-94.0367,1012.68,11111222 
TABS,ioos:station:wmo:42046:1,2016-10-06T12:00:00Z,27.8903,-94.0367,1012.28,11111222 
TABS,ioos:station:wmo:42046:1,2016-10-06T12:30:00Z,27.8903,-94.0367,1012.73,11111222 
TABS,ioos:station:wmo:42046:1,2016-10-06T13:00:00Z,27.8903,-94.0367,1012.88,11111222 
TABS,ioos:station:wmo:42046:1,2016-10-06T13:30:00Z,27.8903,-94.0367,1012.9,11111222 
TABS,ioos:station:wmo:42046:1,2016-10-06T14:00:00Z,27.8903,-94.0367,1012.96,11111222 
TABS,ioos:station:wmo:42046:1,2016-10-06T14:30:00Z,27.8903,-94.0367,1013.25,11111222 
TABS,ioos:station:wmo:42046:1,2016-10-06T15:00:00Z,27.8903,-94.0367,1013.19,11111222 
TABS,ioos:station:wmo:42046:1,2016-10-06T15:30:00Z,27.8903,-94.0367,1013.4,11111222 
TABS,ioos:station:wmo:42046:1,2016-10-06T16:00:00Z,27.8903,-94.0367,1013.49,11111222 
TABS,ioos:station:wmo:42046:1,2016-10-06T16:30:00Z,27.8903,-94.0367,1013.37,11111222 
TABS,ioos:station:wmo:42046:1,2016-10-06T17:00:00Z,27.8903,-94.0367,1013.32,11111222 
TABS,ioos:station:wmo:42046:1,2016-10-06T17:30:00Z,27.8903,-94.0367,1013.43,11111222 
TABS,ioos:station:wmo:42046:1,2016-10-06T18:00:00Z,27.8903,-94.0367,1012.92,11111222 
TABS,ioos:station:wmo:42046:1,2016-10-06T18:30:00Z,27.8903,-94.0367,1012.53,11111222 